Location: St. Louis
(38.6270°N, 90.1994°W)
Time: 11:23:17
(UTC-06:00)

Tiros 1 despin weight - Pass Details

Date: 04 December 2021
Orbit: 592 x 641 km, 48.2° (Epoch: 25 January)

Event Time Altitude Azimuth Distance (km) Brightness Sun altitude
Rises 19:15:18 0° 298° (WNW) 2,826 ? -29.8°
Reaches altitude 10° 19:17:40 10° 291° (WNW) 1,925 ? -30.2°
Enters shadow 19:20:30 33° 263° (W) 1,009 ? -30.8°
